Preview of NWS' New Version of Forecast
This preview is not operational and should not be used for support decisions.

Regional Weather Roundup (RWR)

Issued by National Weather Service (NWS)

                            
000
ASPQ40 PGUM 230510
RWRPQ 
WEATHER ROUNDUP FOR THE MARIANAS AND MICRONESIA
NATIONAL WEATHER SERVICE TIYAN GU
300 PM CHST SUN JUN 23 2019

GUZ001>004-230600-
MARIANA ISLANDS-
  
CITY           SKY/WX    TMP DP  RH WIND       PRES   REMARKS
GUAM AIRPORT   MOSUNNY   90  75  62 E17       29.84S HX 100           
ANDERSEN AFB   MOSUNNY   86  77  74 E16       29.84F HX  97           
ROTA AIRPORT   MOSUNNY   86  75  70 E21       29.83F HX  95           
TINIAN AP      MOSUNNY   88  75  66 E16       29.82F HX  97           
SAIPAN AP      SUNNY     90  73  58 E16G25    29.84S HX  98           

$$

PMZ161-230600-
REPUBLIC OF PALAU-
  
CITY           SKY/WX    TMP DP  RH WIND       PRES   REMARKS
KOROR AP       PTSUNNY   84  77  79 SW15      29.75F HX  94           
KOROR WSO      NOT AVBL                                               

$$

PMZ171>174-230600-
FEDERATED STATES OF MICRONESIA-
  
CITY           SKY/WX    TMP DP  RH WIND       PRES   REMARKS
YAP AIRPORT    MOSUNNY   90  81  74 VRB7      29.79F HX 108           
CHUUK AP       PTSUNNY   84  79  84 NE9       29.76S HX  96           
POHNPEI AP     CLOUDY    86  77  74 E10       29.75S HX  97           
POHNPEI WSO    CLOUDY    86  77  74 SE7       29.79R HX  97           
KOSRAE AP      NOT AVBL                                               

$$

PMZ181-230600-
REPUBLIC OF THE MARSHALL ISLANDS-
  
CITY           SKY/WX    TMP DP  RH WIND       PRES   REMARKS
KWAJALEIN AP   PTSUNNY   86  79  79 NE14      29.78S HX  99           
MAJURO AP      PTSUNNY   86  77  74 NE15      29.76S HX  97           
MAJURO WSO     PTSUNNY   84  77  79 E12       29.75R HX  94           

$$